Miscellaneous Local Product
Issued by NWS Hastings, NE

Home | Current Version | Previous Version | Text Only | Print | Product List | Glossary Off
Versions: 1 2 3 4 5 6 7 8 9 10 11 12 13 14 15 16 17 18 19 20 21 22 23 24 25 26 27 28 29 30 31 32 33 34 35 36 37 38 39 40 41 42 43 44 45 46 47 48 49 50

000
AXUS43 KGID 021702
MISGRI

GID CWA HOURLY WEATHER ROUNDUP
NATIONAL WEATHER SERVICE HASTINGS NE
1200 PM CDT SAT MAY 02 2015

NOTE: "FAIR" INDICATES FEW OR NO CLOUDS BELOW 12,000 FEET WITH NO
SIGNIFICANT WEATHER AND/OR OBSTRUCTIONS TO VISIBILITY.

...SOUTH CENTRAL NEBRASKA...

CITY           SKY/WX    TMP DP  RH WIND       PRES   REMARKS
GRAND ISLAND   SUNNY     77  52  41 SW8       29.87F
HASTINGS       SUNNY     76  53  44 S12       29.87F
KEARNEY        SUNNY     77  52  41 SW8       29.87F
ORD            SUNNY     74  51  44 SE7       29.84F
YORK           MOSUNNY   68  57  68 S14G20    29.89F
AURORA         MOSUNNY   75  54  49 S9G17     29.87F
LEXINGTON      SUNNY     76  54  46 S7        29.88S
HOLDREGE       SUNNY     76  49  38 SW9       29.88F
HEBRON         PTSUNNY   71  51  49 SW12G20   29.92S

...NEBRASKA PANHANDLE...

CITY           SKY/WX    TMP DP  RH WIND       PRES   REMARKS
CHADRON        SUNNY     72  48  42 W10       29.82F
ALLIANCE       SUNNY     75  43  31 W13G26    29.85F
SCOTTSBLUFF    MOSUNNY   72  41  32 W13       29.88S
SIDNEY         SUNNY     74  45  35 NW8       29.92S

...WESTERN AND NORTH CENTRAL NEBRASKA...

CITY           SKY/WX    TMP DP  RH WIND       PRES   REMARKS
VALENTINE      SUNNY     75  53  46 SE13      29.82F
AINSWORTH      SUNNY     74  52  45 S12       29.84F
ONEILL         SUNNY     75  53  45 SE13      29.85F
BROKEN BOW     SUNNY     76  50  40 SW7       29.86F
IMPERIAL       SUNNY     74  50  42 W8        29.89F
NORTH PLATTE   SUNNY     74  52  46 S8        29.86F
MCCOOK         SUNNY     78  51  38 S8        29.87F

...EASTERN NEBRASKA...

CITY           SKY/WX    TMP DP  RH WIND       PRES   REMARKS
NORFOLK        SUNNY     71  55  56 SE16      29.86F
SO SIOUX CITY  MOSUNNY   73  53  49 S23G33    29.90R
TEKAMAH        LGT RAIN  72  56  57 S28       29.91S
COLUMBUS       MOSUNNY   70  54  56 S16       29.91S
ALBION         SUNNY     72  52  50 S13G18    29.86F
OMAHA EPPLEY   CLOUDY    64  54  69 S24G30    29.94F
OFFUTT AFB     PTSUNNY   62  55  75 SE21G26   29.95F
MILLARD        PTSUNNY   63  56  76 SE13      29.95F
LINCOLN        PTSUNNY   66  53  63 S16G23    29.93F
NEBRASKA CITY  CLOUDY    57  50  77 S14       29.98S
BEATRICE       PTSUNNY   64  52  66 S16G22    29.93F
FALLS CITY     LGT RAIN  57  51  80 S7        30.00S

...NORTHERN KANSAS...

CITY           SKY/WX    TMP DP  RH WIND       PRES   REMARKS
GOODLAND       MOSUNNY   76  49  38 W7        29.92S
HILL CITY      SUNNY     77  53  43 S13G18    29.89F
NORTON         SUNNY     79  43  27 SW12      29.87F
PHILLIPSBURG   SUNNY     81  52  36 S8        29.89S
SMITH CENTER   SUNNY     79  48  34 SW10G17   29.89F
BELOIT         SUNNY     75  54  46 S20       29.90F
HAYS           MOSUNNY   81  50  34 SW18G26   29.91F
RUSSELL        SUNNY     79  51  37 S22G29    29.90F
CONCORDIA      PTSUNNY   76  52  43 S22G33    29.91F
SALINA         PTSUNNY   76  57  51 S15       29.95F
TOPEKA         CLOUDY    68  50  52 S12       30.02F



USA.gov is the U.S. government's official web portal to all federal, state and local government web resources and services.